Coffeyville, KS

10:25 PM CST on January 19, 2018 (GMT -0600)
Coffeyville Municipal

Weather History for KCFV - September, 2013

Change the Weather History Date:

Thursday, September 5, 2013

  Actual Average Record
Temperature  
Mean Temperature 77 °F -  
Max Temperature 91 °F 87 °F 105 °F (1998)
Min Temperature 63 °F 61 °F 48 °F (1997)
Cooling Degree Days 12    
Growing Degree Days 27 (Base 50)    
Moisture  
Dew Point 63 °F    
Average Humidity 64    
Maximum Humidity 90    
Minimum Humidity 36    
Precipitation  
Precipitation 0.00 in - - ()
Sea Level Pressure  
Sea Level Pressure 30.11 in    
Wind  
Wind Speed 3 mph (SSE)    
Max Wind Speed 6 mph    
Max Gust Speed -    
Visibility 10 miles    
Events      
Averages and records for this station are not official NWS values.
T = Trace of Precipitation, MM = Missing Value Source: NWS Daily Summary

Daily Weather History Graph

Daily Weather History Graph

Search for Another Location

Airport or City:

Trip Planner

Search our weather history database for the weather conditions in past years. The results will help you decide how hot, cold, wet, or windy it might be!

Date:

Astronomy

Sep. 05, 2013 Rise Set
Actual Time 6:56 AM CDT 7:44 PM CDT
Civil Twilight 6:30 AM CDT 8:10 PM CDT
Nautical Twilight 5:58 AM CDT 8:42 PM CDT
Astronomical Twilight 5:26 AM CDT 9:14 PM CDT
Moon 7:07 AM CDT (9/5) 7:39 PM CDT (9/5)
Length of Visible Light 13h 40m
Length of Day
12h 48m
New Moon, 0% of the Moon is Illuminated
Sep 5
New Moon
Sep 12
First Quarter
Sep 19
Full
Sep 26
Last Quarter
Oct 4
New

Hourly Weather History & Observations

Time (CDT) Temp. Heat Index Dew Point Humidity Pressure Visibility Wind Dir Wind Speed Gust Speed Precip Events Conditions
12:52 AM 68.0 °F - 63.0 °F 84% 30.10 in 10.0 mi East 4.6 mph - N/A   Clear
1:52 AM 68.0 °F - 62.1 °F 81% 30.10 in 10.0 mi Calm Calm - N/A   Clear
2:52 AM 66.0 °F - 62.1 °F 87% 30.11 in 10.0 mi Calm Calm - N/A   Clear
3:52 AM 66.0 °F - 62.1 °F 87% 30.11 in 10.0 mi Calm Calm - N/A   Clear
4:52 AM 64.9 °F - 61.0 °F 87% 30.10 in 10.0 mi Calm Calm - N/A   Clear
5:52 AM 64.0 °F - 61.0 °F 90% 30.11 in 10.0 mi Calm Calm - N/A   Clear
6:52 AM 63.0 °F - 60.1 °F 90% 30.13 in 10.0 mi Calm Calm - N/A   Clear
7:52 AM 66.0 °F - 62.1 °F 87% 30.14 in 10.0 mi Calm Calm - N/A   Clear
8:52 AM 73.0 °F - 63.0 °F 71% 30.15 in 10.0 mi SSE 3.5 mph - N/A   Clear
9:52 AM 78.1 °F - 62.1 °F 58% 30.16 in 10.0 mi SSE 4.6 mph - N/A   Clear
10:52 AM 82.0 °F 83.1 °F 63.0 °F 52% 30.18 in 10.0 mi South 5.8 mph - N/A   Clear
11:52 AM 84.9 °F 85.4 °F 62.1 °F 46% 30.17 in 10.0 mi Variable 4.6 mph - N/A   Clear
12:52 PM 88.0 °F 88.4 °F 62.1 °F 42% 30.15 in 10.0 mi West 5.8 mph - N/A   Clear
1:52 PM 90.0 °F 90.3 °F 62.1 °F 39% 30.12 in 10.0 mi SE 5.8 mph - N/A   Clear
2:52 PM 90.0 °F 90.0 °F 61.0 °F 38% 30.11 in 10.0 mi SSW 4.6 mph - N/A   Clear
3:52 PM 91.0 °F 90.9 °F 61.0 °F 36% 30.09 in 10.0 mi Variable 3.5 mph - N/A   Clear
4:52 PM 91.0 °F 90.9 °F 61.0 °F 36% 30.08 in 10.0 mi South 4.6 mph - N/A   Clear
5:52 PM 90.0 °F 90.3 °F 62.1 °F 39% 30.07 in 10.0 mi SSE 5.8 mph - N/A   Clear
6:52 PM 88.0 °F 89.6 °F 64.9 °F 46% 30.07 in 10.0 mi SSE 3.5 mph - N/A   Clear
7:52 PM 82.0 °F 83.8 °F 64.9 °F 56% 30.07 in 10.0 mi ESE 5.8 mph - N/A   Clear
8:52 PM 78.1 °F - 66.0 °F 66% 30.08 in 10.0 mi ESE 4.6 mph - N/A   Clear
9:52 PM 75.0 °F - 64.9 °F 71% 30.09 in 10.0 mi SE 4.6 mph - N/A   Clear
10:52 PM 75.0 °F - 64.0 °F 69% 30.10 in 10.0 mi SE 4.6 mph - N/A   Clear
11:52 PM 73.0 °F - 63.0 °F 71% 30.10 in 10.0 mi SE 4.6 mph - N/A   Clear